Dewpoint
34 32 31 32 32 32 32 33 33 33 34 31 29 28 27 27 27 26 26 26 24 23 23 23 23 23 23 26 27 29 30 31 32 32 33 33 33 33 33 32 33 33 33 33 33 34 34 34 35 35 35 35 35 35 35 35 35 35 35 35 35 35 35 35 36 36 36 36 36 36 36 36 37 37 37 38 38 38 37 37 37 37 37 37 37 37
33 31 31 31 32 32 32 32 32 32 32 30 29 27 27 26 25 25 26 26 25 24 23 23 22 22 22 24 26 28 29 30 31 32 32 32 32 32 32 32 32 32 32 33 33 33 34 34 34 34 34 34 34 34 34 34 34 34 34 34 34 34 34 34 35 35 35 36 36 36 36 36 36 37 37 37 37 36 36 36 37 37 37 37 37 37
34 32 31 32 32 32 32 32 31 30 31 29 27 26 25 25 25 26 25 25 24 24 24 23 22 22 22 24 26 28 28 30 31 31 32 32 31 31 32 32 32 32 32 32 33 33 33 33 33 33 33 33 33 33 33 33 33 33 33 33 33 33 33 33 33 34 34 34 35 35 35 36 36 36 36 36 36 36 36 36 37 37 37 37 37 37
35 34 32 32 32 32 32 31 30 29 28 28 27 25 24 26 27 26 26 25 24 24 24 23 23 22 22 23 25 27 28 29 30 31 31 30 30 30 31 31 32 32 32 32 32 32 33 33 33 33 33 33 33 33 33 33 32 32 32 32 32 32 33 33 33 33 33 33 34 34 34 35 35 36 36 35 35 36 36 36 37 37 37 37 37 37
35 34 32 32 31 31 31 30 28 27 27 27 27 26 25 26 26 26 25 25 25 24 24 23 23 22 22 23 24 26 27 29 29 30 30 29 30 30 30 31 31 31 31 32 32 32 32 32 32 32 32 32 32 32 32 32 32 32 32 32 32 32 32 32 32 32 32 33 33 33 34 34 35 35 35 35 35 35 36 36 37 37 37 37 37 38
34 32 32 31 31 30 29 28 28 28 27 27 27 27 27 27 27 26 26 26 25 24 23 23 23 23 22 22 23 26 27 27 28 28 28 28 29 29 29 29 30 30 30 31 31 31 31 32 32 32 32 32 32 32 32 32 32 32 32 32 32 32 32 32 32 32 32 33 33 33 33 34 34 34 34 34 35 35 35 36 36 37 38 38 38 38
32 30 30 30 29 28 27 28 28 28 27 28 28 28 27 27 27 28 28 27 26 24 23 23 23 23 22 22 23 24 25 26 26 27 27 27 27 27 28 28 29 29 30 30 30 31 31 31 31 31 31 31 31 31 31 31 31 31 31 31 31 31 32 32 32 32 32 32 33 33 33 34 34 34 34 34 34 35 35 36 36 37 38 38 38 39
31 30 29 29 28 28 27 27 27 27 27 27 28 28 27 27 27 28 29 29 28 26 24 23 23 22 21 20 20 21 21 22 23 23 23 24 25 26 26 27 28 28 29 29 29 30 30 30 30 30 30 30 30 30 30 30 30 30 30 30 30 31 31 32 32 32 32 32 33 33 33 33 33 33 34 34 35 35 36 36 37 37 38 38 38 39
32 31 29 29 29 29 29 29 28 27 27 27 27 27 27 26 26 26 27 27 27 26 24 23 22 21 20 20 19 19 19 20 20 20 21 21 22 23 25 26 27 27 28 28 28 29 29 29 29 29 29 29 29 29 29 29 29 29 29 30 30 31 31 32 32 32 32 32 33 33 33 33 33 34 34 34 35 35 36 36 37 37 37 38 38 38
32 31 29 28 29 30 31 29 28 27 27 26 26 27 26 25 24 23 22 22 23 24 23 22 21 20 20 21 20 19 20 20 21 22 23 23 23 24 25 25 25 26 26 27 27 27 28 28 28 28 28 28 28 28 27 27 27 28 29 29 30 31 31 32 32 32 32 33 33 34 34 33 34 34 34 34 35 36 36 36 36 36 37 37 37 38
31 30 29 28 28 29 30 28 27 26 27 26 26 26 26 25 23 22 20 20 21 22 22 22 21 20 19 19 19 18 19 18 19 20 23 23 24 24 24 24 23 24 24 25 25 26 26 26 26 26 27 26 26 26 26 26 27 28 29 30 30 31 31 31 32 32 32 33 33 34 34 34 34 34 34 35 35 36 36 36 36 36 36 36 36 37
31 30 30 30 29 29 28 28 27 27 27 27 26 26 25 24 24 23 21 20 20 20 21 21 21 21 21 19 18 18 18 16 16 17 19 20 21 21 20 20 20 21 22 22 23 23 24 24 24 25 24 24 24 24 25 26 27 28 29 30 30 31 31 31 32 32 32 33 33 34 34 34 34 34 35 35 35 36 36 36 36 36 36 36 36 36
31 30 30 31 30 30 29 28 28 27 27 26 25 24 23 24 24 23 23 22 21 22 21 21 21 21 21 20 19 18 17 16 15 16 16 17 18 18 17 17 17 17 18 18 18 19 21 22 23 23 23 23 23 23 24 26 27 28 29 30 30 31 31 31 32 32 32 33 33 34 34 34 34 35 35 35 35 35 35 35 35 35 35 35 35 36
32 31 32 32 31 30 30 29 28 27 26 26 25 24 25 24 24 24 23 22 22 23 23 21 20 20 20 19 19 18 17 16 15 15 15 16 17 17 17 17 16 16 16 15 16 17 20 21 21 20 21 21 22 23 24 26 27 28 29 30 30 31 31 31 32 32 32 33 33 33 34 34 34 34 35 35 35 35 35 35 35 35 35 35 35 35
33 33 33 32 31 29 29 28 28 27 26 26 25 25 24 24 24 24 23 22 22 22 22 20 19 18 18 18 19 18 17 16 15 14 14 15 17 18 18 17 16 15 15 15 15 17 20 20 19 18 18 19 21 23 25 26 28 29 29 30 30 30 31 31 31 32 32 32 33 33 33 33 34 34 34 34 34 34 34 34 35 35 35 34 34 34
34 33 33 31 29 28 27 27 27 26 26 25 25 25 24 24 24 23 23 22 22 22 20 19 17 16 16 18 19 19 18 17 15 14 14 14 16 17 18 17 16 15 15 14 15 17 19 18 18 17 18 20 22 24 26 27 28 29 29 30 30 30 30 30 31 32 32 32 32 33 33 33 33 33 33 33 33 34 34 34 34 34 34 34 34 33
32 32 31 28 27 26 26 26 26 25 25 25 25 25 24 24 24 23 23 23 22 21 20 18 17 15 13 15 18 20 18 17 16 15 14 14 15 17 19 18 16 15 14 15 15 16 17 17 17 18 18 22 23 25 26 27 28 28 29 29 29 29 30 30 31 31 32 32 32 32 32 32 32 32 32 33 33 33 34 34 34 33 33 33 33 32
30 29 28 26 25 25 25 25 25 25 25 24 24 25 25 25 25 24 23 23 22 20 19 18 17 15 14 14 14 15 18 18 17 16 15 14 15 16 19 18 16 15 14 15 15 16 16 18 19 20 20 23 24 25 26 27 27 28 28 29 29 29 29 30 30 31 31 32 32 32 32 32 32 32 32 32 32 33 33 33 33 33 33 32 32 32
27 26 26 25 25 25 25 25 24 24 24 24 24 25 25 25 25 25 24 23 22 21 19 18 17 16 15 14 15 16 18 18 18 17 15 14 14 14 16 16 15 14 14 15 16 17 17 20 22 23 23 23 24 25 26 27 27 27 28 28 28 29 29 29 30 30 31 31 31 31 31 31 32 32 32 32 32 32 33 33 33 32 32 32 32 33
25 24 24 24 25 25 25 25 25 25 25 26 26 26 25 25 25 24 24 23 22 21 20 18 17 17 16 15 15 16 18 18 18 17 15 14 13 14 15 15 14 14 14 14 15 16 17 19 21 22 22 23 23 24 25 26 27 27 27 27 28 28 29 29 29 30 30 30 30 31 31 31 31 31 32 32 32 32 32 32 32 32 32 32 33 34
24 24 26 26 26 25 25 25 26 27 28 28 27 26 25 25 24 23 23 22 21 20 19 18 17 16 16 15 15 16 18 18 17 15 14 13 13 13 14 14 14 13 14 14 15 16 16 18 18 19 20 22 23 24 25 26 26 27 27 27 27 28 28 29 29 29 29 30 30 30 30 31 31 31 31 31 32 32 32 32 32 32 32 33 34 35
25 26 27 27 27 26 25 27 27 28 29 29 28 27 25 25 24 23 23 22 21 19 18 18 17 17 17 16 17 17 19 18 17 15 14 13 13 13 14 14 14 13 14 14 15 15 16 17 17 18 20 22 23 23 24 25 25 26 27 27 27 27 28 28 28 28 29 29 29 30 30 30 30 31 31 31 31 31 31 31 31 32 32 33 34 34
27 27 28 28 28 28 28 28 29 30 30 29 28 27 27 26 25 24 23 22 21 20 19 18 18 18 18 18 18 18 18 18 17 16 15 14 13 12 13 14 14 13 14 14 14 15 16 16 16 18 20 22 23 23 23 24 25 26 27 27 27 27 27 27 27 28 28 29 29 29 30 30 30 30 30 30 30 30 30 31 31 32 32 33 33 32
29 29 30 30 30 30 29 28 29 29 30 29 29 29 30 28 27 26 24 23 23 21 20 19 18 18 18 17 17 16 17 18 17 16 14 14 13 12 13 14 14 14 14 14 14 15 16 16 16 18 19 21 22 22 23 24 25 26 26 26 27 27 27 27 27 27 28 28 28 29 29 29 29 29 29 30 30 30 30 31 31 32 32 33 32 31
29 29 30 30 31 31 30 29 29 29 30 30 29 29 29 28 27 26 24 23 21 20 19 18 16 15 14 14 13 14 16 18 17 15 14 13 13 13 14 14 14 14 14 14 15 15 15 15 16 18 19 20 21 22 23 23 24 25 26 26 26 26 26 26 27 27 27 28 28 28 28 28 29 29 29 29 29 29 30 31 31 32 32 32 31 30
31 31 31 32 32 32 32 32 32 32 31 30 29 27 26 25 24 22 21 19 18 17 17 15 14 14 13 12 11 11 14 17 17 15 14 14 13 13 14 14 14 14 14 15 15 16 16 16 17 18 18 19 20 21 23 23 24 25 25 25 25 25 25 26 26 26 27 27 27 27 28 28 28 28 28 29 29 29 30 31 32 32 32 31 30 29
34 34 34 33 33 32 32 32 32 32 32 30 28 26 24 23 20 18 17 17 17 16 15 14 13 13 13 12 11 11 13 14 16 16 15 15 14 14 14 14 15 14 15 15 16 17 18 18 18 18 18 18 19 21 23 23 24 24 24 24 24 24 24 25 25 26 26 27 27 27 27 27 27 28 28 28 29 29 30 31 31 31 31 29 28 27
33 33 32 32 31 31 30 30 30 31 31 30 29 27 24 21 18 16 16 16 16 16 15 14 14 13 13 12 12 12 13 14 16 17 17 16 15 14 15 15 15 15 15 15 16 18 19 19 18 17 17 18 18 20 22 23 23 23 23 23 23 23 24 24 25 25 26 26 26 26 27 27 27 27 27 28 28 29 30 31 31 30 29 28 26 25
30 30 29 29 28 28 28 28 28 28 29 29 28 27 24 20 18 17 18 18 17 16 15 14 14 14 14 13 13 13 14 15 17 18 17 16 16 15 16 16 16 16 15 16 17 18 19 19 18 18 17 18 19 19 20 21 22 22 22 22 22 23 23 23 24 24 25 25 25 26 26 26 26 27 27 27 28 29 29 30 30 30 28 27 25 24
24 24 24 25 25 25 24 25 25 26 27 27 26 25 23 22 20 19 19 18 18 16 15 15 15 15 14 14 14 14 14 16 18 18 18 17 16 16 16 16 16 16 16 16 17 17 18 19 19 18 18 18 18 18 18 19 19 19 19 20 21 21 22 23 23 24 24 24 25 25 25 25 26 26 27 27 27 28 29 29 29 29 27 26 25 24
21 21 20 21 21 22 22 22 23 23 24 25 24 24 23 22 22 21 20 19 18 17 16 15 15 15 15 14 14 14 14 15 17 18 18 17 17 17 17 17 17 16 16 17 16 16 17 18 18 19 18 18 18 17 18 18 18 18 18 18 18 20 21 22 22 23 23 23 24 24 25 25 25 25 26 27 27 27 28 29 29 28 26 25 24 24
20 20 20 20 20 20 21 20 20 21 21 22 22 22 22 22 22 21 21 20 18 18 17 16 16 15 15 15 14 14 14 15 17 18 18 18 17 18 17 17 17 17 17 17 16 16 16 16 17 17 17 17 17 17 18 18 18 17 17 17 17 18 20 21 21 22 22 23 23 23 24 24 24 25 25 26 26 27 27 28 28 27 26 25 25 24
21 20 20 21 21 20 20 19 19 20 20 20 20 20 20 20 21 21 21 20 19 18 17 17 16 16 15 15 15 15 15 15 17 19 20 18 18 18 17 17 17 17 17 16 16 16 15 15 15 16 16 16 16 17 17 17 17 17 17 16 16 17 19 20 20 20 20 21 21 22 23 23 23 24 25 25 26 26 27 27 27 27 27 25 25 25
23 22 21 21 20 20 19 19 19 20 20 19 19 19 19 19 19 20 20 20 20 19 18 17 17 16 15 15 15 15 16 16 18 20 20 18 18 17 17 16 16 16 16 16 15 15 15 15 15 15 15 16 16 17 16 17 17 17 17 16 16 16 17 18 18 18 19 19 19 20 21 21 23 23 24 24 25 26 26 27 27 27 26 26 25 25
23 22 21 20 19 19 19 19 19 19 19 19 19 18 19 19 18 18 19 19 19 19 19 18 18 17 16 15 15 15 16 17 18 20 20 18 17 16 16 16 16 16 15 15 15 15 14 14 15 15 14 15 15 16 16 16 17 17 16 16 16 16 17 17 18 18 18 18 18 18 18 19 20 21 22 23 24 25 26 26 26 26 26 26 26 25
22 21 20 19 18 18 18 18 18 18 18 18 18 18 18 18 18 18 18 18 19 19 19 19 19 18 18 17 16 16 17 17 18 20 20 19 18 16 15 15 16 16 15 15 15 14 14 14 14 15 15 14 14 15 16 17 17 16 16 16 17 17 17 17 18 17 17 17 18 18 18 18 19 20 21 23 24 25 25 25 25 25 25 26 26 25
20 19 18 18 18 17 18 18 18 18 18 18 18 18 18 18 18 18 18 19 20 19 19 19 19 19 20 18 18 18 18 18 18 19 20 19 18 17 16 16 16 16 15 15 15 14 14 14 14 14 14 14 14 14 15 16 16 16 15 16 17 17 17 18 18 18 17 18 18 18 18 18 19 20 21 23 23 23 23 24 24 24 25 25 25 25
18 18 18 18 18 18 18 17 17 17 18 18 18 18 18 18 19 20 19 20 21 21 19 18 18 19 21 21 20 20 20 20 20 20 20 20 19 18 17 17 17 17 16 16 15 15 14 14 13 13 13 13 14 14 15 15 15 15 15 17 17 17 17 18 18 18 18 18 18 18 19 19 19 19 21 21 21 21 21 21 22 23 24 25 25 25
16 16 17 18 18 18 18 17 17 17 18 18 18 18 18 18 19 20 20 20 20 20 20 19 19 19 20 21 21 21 21 21 21 21 21 22 21 20 18 17 17 17 17 17 16 16 15 14 14 13 13 13 14 14 15 15 15 15 16 17 17 18 18 18 18 18 18 18 18 18 18 18 18 19 20 20 20 20 20 20 21 22 23 23 24 24
16 16 17 18 18 18 18 18 18 18 18 18 18 18 18 18 18 19 20 19 19 19 19 19 19 19 19 20 20 21 21 22 22 22 22 22 22 21 19 18 17 17 17 17 17 16 15 15 14 14 14 14 14 14 14 15 15 16 17 17 16 17 18 18 18 18 18 18 18 18 18 18 19 19 20 20 20 20 20 20 20 21 22 23 23 23
18 18 18 18 18 17 17 17 18 18 18 18 18 17 17 17 17 17 18 18 18 18 18 18 18 18 19 20 20 20 20 21 21 21 22 23 23 22 20 18 17 17 17 17 16 16 16 15 15 15 15 15 15 15 15 15 17 18 18 17 16 17 18 18 19 18 18 18 18 18 19 19 20 20 20 20 20 20 21 20 20 21 22 23 23 22
19 18 18 17 16 16 16 17 18 18 18 18 18 17 17 17 17 18 18 18 18 18 18 18 18 18 18 19 19 20 21 21 21 21 22 23 23 23 21 19 18 17 17 17 16 16 17 17 17 16 16 16 16 15 15 16 17 18 18 17 17 18 18 18 18 18 18 18 18 19 20 20 20 20 20 20 20 21 21 21 21 22 22 22 22 22
18 18 17 17 16 16 17 18 18 18 17 17 17 18 18 18 18 18 18 18 18 18 18 18 18 18 18 19 19 20 22 23 22 22 22 23 23 23 22 20 19 18 18 17 17 17 17 17 17 17 17 17 16 16 16 16 17 17 17 18 18 18 17 18 18 18 18 18 18 19 19 20 20 20 21 21 21 21 21 22 22 22 22 22 22 22
17 17 17 16 16 16 17 17 17 17 17 17 18 18 18 18 18 19 19 19 18 18 18 18 18 18 19 19 19 20 20 21 22 22 22 23 23 23 23 22 21 20 19 18 18 17 17 17 17 17 18 18 17 17 17 17 17 17 17 18 18 18 18 18 18 18 18 19 19 20 20 21 21 21 21 20 20 21 21 21 20 21 21 22 22 22
16 16 16 16 16 16 17 17 17 17 17 17 18 18 19 19 19 19 19 19 18 18 18 18 18 18 19 19 19 19 20 20 21 22 22 22 23 23 23 22 21 21 20 20 19 18 18 18 18 18 18 18 18 18 17 17 17 17 18 18 18 18 18 19 19 19 19 19 20 21 21 22 22 21 21 20 20 20 21 21 21 21 21 21 22 22
16 16 16 16 16 16 17 18 18 17 18 18 18 19 19 19 19 19 19 19 18 18 18 18 18 18 19 19 19 19 19 19 20 20 21 21 22 22 22 22 22 21 21 20 20 20 19 19 19 19 19 19 18 18 18 18 18 18 18 18 18 18 19 19 19 19 20 20 21 22 22 22 22 21 20 20 20 21 21 21 21 21 21 21 22 22
17 16 16 16 16 16 17 17 18 18 18 18 19 19 19 19 19 19 19 19 18 18 18 19 19 19 19 19 19 19 19 19 19 20 20 20 21 21 21 22 22 22 21 21 21 21 21 21 21 21 20 19 19 18 18 18 18 18 18 19 19 19 19 19 20 20 21 21 22 22 23 23 22 21 21 20 20 21 21 21 21 22 22 22 22 23
16 16 16 16 17 17 17 18 18 18 18 18 19 19 19 19 19 19 19 18 18 18 18 18 19 19 19 19 19 19 20 20 19 20 20 20 21 21 21 21 21 22 22 22 22 22 22 23 23 23 22 20 19 19 19 19 19 19 19 19 19 20 20 20 20 21 22 22 23 23 23 23 22 21 21 21 20 20 20 21 22 22 22 23 23 23
16 16 16 17 17 17 17 18 18 18 18 19 19 19 19 19 19 19 18 18 18 18 18 18 19 19 19 19 19 20 20 20 20 20 20 20 20 21 21 21 21 21 21 22 22 22 22 23 23 23 23 22 20 20 19 19 20 20 20 20 20 21 21 21 22 22 23 23 24 24 24 23 23 22 22 21 20 20 20 21 21 22 23 23 23 24
17 16 17 17 17 17 17 18 18 18 18 19 19 19 19 19 19 19 19 19 18 19 19 19 19 19 19 19 19 20 20 20 19 19 20 20 20 21 21 21 21 21 21 21 21 21 21 22 23 23 24 23 23 22 21 21 21 21 21 21 22 22 22 22 23 23 23 23 24 24 24 24 23 23 22 21 20 20 20 21 21 22 23 23 24 24
17 17 16 17 17 17 17 18 18 18 18 19 19 18 19 19 19 19 19 19 19 19 19 19 19 19 19 19 19 20 20 19 19 19 20 20 21 21 21 21 21 21 20 20 20 20 19 19 20 21 22 24 24 24 23 22 22 22 22 22 23 23 23 23 23 23 24 24 24 24 24 24 23 23 22 22 21 20 20 21 21 22 23 23 24 24